Temp
2 2 3 3 3 3 3 4 4 4 5 4 4 5 5 4 4 4 4 4 4 4 4 3 3 3 2 2 2 2 3 3 3 2 2 1 1 1 1 0 -0 -0 -2 -1
2 2 2 3 3 2 3 3 4 4 4 4 4 4 4 4 4 4 4 4 4 4 4 3 3 2 2 2 1 2 2 2 2 2 1 1 1 0 0 -1 -2 -2 -2 -0
2 2 2 2 2 2 2 3 3 4 4 4 4 4 4 4 4 4 4 4 3 3 3 3 2 2 1 1 1 1 1 2 2 2 2 1 1 1 -1 -2 -2 -2 -1 -1
1 2 2 2 2 2 2 2 3 4 3 3 4 4 4 4 4 3 3 3 3 3 3 2 2 2 2 2 1 1 1 1 1 1 1 1 2 1 0 -1 -1 -3 0 -1
2 2 2 2 2 2 2 2 3 3 3 3 3 3 3 3 3 3 3 3 3 2 2 2 2 2 2 2 2 1 1 1 1 1 1 1 1 2 1 0 0 -1 -1 -1
1 1 1 1 2 2 2 2 3 3 3 3 3 3 3 3 3 3 3 2 2 2 2 2 2 2 2 2 2 1 1 0 -0 -0 0 -0 1 1 1 1 -0 -1 -1 -1
1 1 1 1 2 2 2 2 2 2 3 2 3 3 3 2 2 2 2 2 2 2 1 1 2 2 2 2 2 1 1 -1 -2 -2 -1 -2 1 0 -1 -1 -0 -1 -1 -2
1 1 1 1 1 1 2 2 2 2 2 2 2 2 2 2 2 2 1 1 1 1 1 1 1 1 1 1 1 1 0 -0 -1 -3 -4 -2 -1 -0 -1 -1 -2 -2 -2 -2
1 1 1 1 1 1 1 2 2 2 2 2 2 2 2 2 1 1 1 1 1 1 0 0 0 0 0 0 0 0 -0 -1 -2 -4 -4 -3 -1 -1 -2 -2 -2 -2 -4 -4
0 1 1 1 1 1 1 1 1 1 2 2 1 1 1 1 1 1 0 0 0 -0 -0 -1 -1 -0 -1 -1 -1 -1 -2 -2 -3 -4 -4 -3 -2 -2 -3 -3 -4 -4 -5 -5
0 0 0 1 1 1 1 1 1 1 1 1 1 1 1 0 0 0 0 -0 0 -0 -1 -1 -1 -1 -1 -2 -2 -2 -3 -3 -4 -4 -4 -3 -2 -3 -4 -4 -4 -4 -5 -5
-0 0 0 0 0 0 1 1 0 0 0 0 0 1 1 0 0 -0 -0 -0 -0 -1 -1 -1 -2 -2 -2 -3 -3 -3 -3 -3 -3 -4 -3 -2 -3 -4 -4 -4 -4 -4 -6 -5
-1 -0 -0 -0 0 0 -0 0 0 -0 -0 -0 -0 0 0 -0 -0 -0 -0 -0 -1 -1 -1 -2 -2 -3 -3 -3 -3 -3 -3 -3 -4 -4 -3 -3 -4 -4 -5 -4 -5 -5 -5 -6
-1 -0 -0 -1 -1 -1 -1 -0 -0 -1 -1 -1 -0 -0 -1 -1 -1 -1 -1 -1 -1 -1 -2 -2 -3 -3 -3 -3 -3 -4 -3 -4 -4 -4 -3 -4 -4 -4 -5 -5 -5 -5 -6 -6
-1 -1 -1 -1 -1 -1 -1 -1 -1 -1 -1 -1 -1 -1 -1 -1 -1 -1 -1 -1 -1 -1 -2 -2 -3 -3 -3 -4 -4 -4 -2 -3 -4 -4 -5 -5 -4 -5 -5 -6 -6 -6 -7 -8
-2 -2 -2 -2 -1 -1 -1 -2 -2 -2 -2 -2 -2 -1 -1 -1 -1 -1 -1 -1 -1 -1 -2 -3 -4 -3 -5 -4 -4 -4 -3 -4 -5 -5 -5 -4 -5 -5 -6 -6 -6 -7 -9 -9
-2 -3 -2 -2 -2 -2 -2 -2 -2 -2 -2 -3 -3 -2 -1 -1 -0 -1 -1 -1 -1 -1 -2 -4 -5 -4 -4 -4 -4 -3 -3 -4 -5 -5 -5 -6 -6 -6 -7 -7 -8 -9 -9 -10
-3 -3 -3 -3 -3 -3 -3 -3 -3 -3 -3 -3 -3 -3 -3 -2 -2 -2 -2 -2 -2 -2 -3 -3 -4 -5 -4 -5 -4 -4 -4 -5 -6 -5 -6 -6 -7 -7 -7 -8 -9 -9 -10 -10
-3 -4 -5 -4 -4 -3 -3 -3 -3 -3 -4 -4 -4 -3 -4 -4 -3 -3 -2 -3 -3 -3 -4 -5 -5 -5 -5 -4 -4 -5 -5 -6 -5 -6 -7 -7 -8 -8 -9 -9 -10 -10 -10 -10
-4 -4 -5 -4 -4 -4 -5 -3 -4 -4 -4 -4 -4 -5 -4 -5 -4 -4 -5 -4 -5 -5 -5 -5 -5 -5 -6 -6 -6 -6 -6 -6 -7 -8 -8 -8 -8 -9 -9 -9 -10 -10 -10 -10
-4 -4 -4 -4 -4 -4 -4 -4 -4 -4 -4 -4 -4 -5 -4 -5 -5 -5 -5 -5 -6 -6 -5 -6 -6 -6 -5 -5 -6 -7 -7 -7 -8 -8 -9 -9 -9 -9 -10 -10 -10 -10 -11 -11
-4 -4 -4 -4 -5 -4 -4 -5 -5 -5 -5 -5 -5 -4 -5 -6 -6 -6 -6 -6 -6 -6 -7 -7 -7 -6 -6 -6 -7 -7 -7 -8 -8 -9 -9 -10 -10 -10 -10 -11 -11 -11 -12 -12
-6 -6 -6 -6 -7 -7 -6 -7 -7 -7 -6 -5 -5 -6 -7 -6 -7 -7 -7 -7 -7 -8 -8 -8 -6 -6 -7 -7 -8 -8 -9 -9 -9 -10 -10 -10 -11 -11 -11 -11 -12 -12 -12 -12
-8 -8 -8 -8 -8 -8 -7 -6 -6 -6 -6 -6 -6 -6 -6 -7 -8 -8 -7 -8 -8 -8 -8 -7 -6 -7 -8 -8 -8 -9 -9 -10 -10 -11 -11 -11 -11 -11 -11 -12 -12 -13 -13 -13
-9 -9 -9 -8 -8 -8 -7 -7 -7 -6 -6 -6 -7 -7 -8 -8 -8 -8 -8 -9 -9 -8 -6 -6 -7 -8 -8 -9 -9 -10 -10 -11 -11 -11 -11 -11 -12 -12 -12 -12 -13 -13 -13 -13
-8 -8 -8 -8 -8 -7 -7 -7 -7 -7 -7 -7 -8 -8 -8 -8 -8 -9 -9 -10 -8 -7 -7 -8 -9 -9 -9 -10 -10 -11 -11 -11 -11 -11 -12 -12 -12 -12 -12 -12 -13 -13 -13 -13
-9 -8 -8 -8 -7 -7 -7 -7 -7 -7 -8 -8 -9 -9 -8 -9 -9 -10 -9 -8 -8 -9 -9 -10 -10 -10 -10 -11 -11 -11 -11 -12 -12 -12 -12 -12 -13 -13 -13 -13 -13 -13 -14 -14
Height
3106 3107 3109 3111 3113 3116 3120 3122 3126 3128 3131 3135 3136 3138 3139 3142 3144 3146 3148 3150 3151 3152 3154 3155 3157 3158 3159 3160 3160 3159 3158 3157 3157 3157 3156 3156 3156 3156 3156 3156 3157 3155 3153 3143
3106 3107 3109 3111 3113 3116 3119 3122 3125 3128 3131 3133 3134 3136 3138 3140 3143 3145 3147 3149 3151 3152 3153 3156 3156 3157 3158 3158 3158 3158 3157 3156 3155 3156 3157 3155 3154 3153 3153 3152 3152 3150 3151 3139
3105 3107 3109 3112 3114 3116 3120 3122 3125 3127 3130 3132 3134 3135 3137 3139 3142 3145 3147 3148 3150 3151 3152 3154 3155 3156 3157 3157 3156 3156 3155 3154 3154 3154 3154 3153 3149 3148 3147 3148 3147 3144 3139 3135
3104 3107 3109 3112 3114 3116 3119 3121 3123 3125 3127 3131 3133 3135 3137 3139 3141 3144 3146 3148 3149 3151 3152 3153 3154 3155 3155 3154 3153 3153 3153 3152 3151 3150 3149 3147 3143 3142 3141 3140 3138 3138 3133 3131
3102 3105 3108 3110 3113 3115 3118 3120 3122 3124 3127 3129 3132 3134 3136 3139 3141 3143 3145 3146 3148 3149 3151 3152 3152 3153 3152 3152 3151 3150 3149 3148 3146 3144 3144 3143 3137 3135 3133 3132 3132 3129 3127 3123
3100 3103 3106 3109 3112 3114 3116 3119 3120 3123 3125 3128 3131 3133 3136 3138 3140 3142 3144 3145 3147 3148 3149 3149 3150 3150 3150 3149 3149 3147 3146 3145 3143 3140 3139 3139 3132 3129 3131 3130 3128 3126 3122 3120
3097 3101 3104 3107 3109 3112 3115 3117 3120 3122 3124 3127 3130 3132 3135 3137 3139 3141 3142 3144 3145 3147 3147 3147 3147 3147 3146 3146 3145 3145 3143 3142 3141 3138 3138 3138 3128 3127 3125 3123 3122 3121 3117 3113
3094 3098 3101 3105 3108 3110 3113 3115 3118 3120 3123 3126 3128 3130 3133 3135 3137 3139 3140 3142 3143 3143 3144 3145 3144 3144 3144 3143 3142 3142 3141 3140 3138 3136 3135 3131 3122 3122 3120 3117 3116 3114 3111 3107
3091 3095 3099 3102 3105 3107 3110 3113 3115 3118 3121 3123 3126 3128 3130 3132 3135 3136 3137 3139 3140 3141 3141 3142 3142 3142 3141 3141 3140 3139 3139 3138 3137 3134 3133 3126 3120 3119 3115 3112 3109 3108 3105 3102
3087 3091 3096 3099 3102 3105 3108 3110 3113 3116 3119 3121 3123 3126 3128 3130 3131 3133 3135 3136 3137 3138 3138 3139 3139 3139 3139 3138 3137 3136 3135 3133 3131 3130 3128 3119 3115 3113 3112 3111 3109 3100 3097 3093
3083 3088 3092 3096 3099 3102 3105 3108 3110 3114 3116 3119 3121 3122 3124 3126 3128 3130 3132 3134 3133 3134 3135 3135 3135 3134 3135 3134 3134 3132 3131 3129 3126 3123 3123 3115 3112 3110 3110 3105 3097 3092 3090 3084
3079 3084 3088 3092 3095 3098 3101 3105 3107 3110 3114 3117 3117 3119 3121 3122 3124 3126 3127 3128 3129 3130 3130 3132 3131 3131 3129 3129 3127 3128 3124 3123 3122 3120 3114 3112 3109 3104 3100 3095 3090 3085 3082 3076
3074 3079 3084 3087 3091 3094 3098 3100 3103 3106 3109 3112 3113 3115 3117 3118 3119 3121 3123 3123 3124 3125 3126 3126 3125 3124 3122 3122 3120 3120 3117 3116 3112 3110 3107 3104 3101 3098 3093 3087 3083 3079 3074 3069
3069 3074 3078 3082 3086 3089 3093 3096 3099 3102 3105 3107 3109 3109 3110 3112 3114 3115 3117 3118 3118 3119 3119 3119 3118 3117 3114 3112 3113 3111 3112 3107 3104 3098 3099 3094 3092 3088 3085 3079 3075 3071 3068 3064
3063 3068 3072 3077 3081 3084 3087 3090 3093 3096 3102 3100 3102 3103 3105 3107 3108 3109 3110 3112 3113 3113 3112 3110 3110 3109 3108 3104 3104 3101 3102 3101 3096 3092 3091 3087 3083 3079 3076 3073 3068 3064 3062 3059
3057 3062 3066 3071 3075 3078 3082 3085 3087 3090 3092 3095 3096 3096 3097 3100 3102 3103 3103 3105 3106 3105 3103 3101 3101 3103 3103 3095 3091 3093 3095 3093 3090 3086 3082 3079 3076 3073 3070 3067 3063 3059 3056 3052
3051 3056 3061 3065 3068 3072 3076 3079 3082 3085 3088 3089 3089 3087 3087 3091 3094 3095 3096 3098 3097 3097 3094 3090 3093 3094 3094 3088 3085 3087 3086 3084 3081 3078 3075 3073 3069 3067 3064 3061 3056 3053 3050 3045
3045 3050 3055 3059 3062 3066 3069 3071 3075 3078 3082 3083 3081 3079 3082 3084 3086 3089 3090 3089 3089 3085 3085 3084 3084 3085 3083 3078 3077 3077 3076 3075 3074 3070 3068 3065 3063 3060 3057 3054 3051 3046 3042 3036
3038 3043 3049 3053 3055 3057 3060 3067 3070 3072 3077 3073 3070 3071 3075 3077 3081 3082 3081 3080 3080 3080 3077 3078 3079 3075 3074 3073 3072 3070 3069 3068 3067 3063 3061 3059 3057 3055 3051 3048 3044 3038 3033 3028
3031 3037 3041 3043 3045 3050 3058 3061 3062 3062 3062 3062 3059 3063 3068 3073 3075 3074 3078 3074 3074 3070 3070 3070 3067 3065 3066 3065 3063 3061 3061 3061 3060 3058 3056 3053 3051 3048 3044 3040 3035 3029 3024 3018
3021 3024 3029 3035 3040 3045 3048 3049 3052 3052 3051 3051 3052 3056 3059 3065 3067 3068 3069 3065 3065 3063 3063 3064 3058 3057 3058 3056 3056 3057 3056 3054 3054 3052 3050 3047 3043 3040 3035 3031 3026 3020 3013 3007
3013 3017 3022 3028 3030 3034 3038 3038 3041 3041 3043 3045 3049 3052 3055 3058 3061 3062 3061 3061 3060 3057 3056 3056 3051 3052 3051 3051 3052 3051 3051 3049 3048 3046 3044 3040 3036 3032 3026 3020 3014 3008 3003 2998
3009 3012 3016 3019 3022 3025 3028 3030 3031 3035 3038 3042 3045 3049 3052 3053 3055 3055 3057 3055 3054 3052 3051 3048 3047 3046 3046 3047 3048 3048 3046 3044 3042 3039 3036 3032 3026 3021 3015 3009 3004 2998 2993 2989
3008 3010 3013 3017 3019 3020 3023 3027 3031 3034 3037 3039 3041 3044 3047 3046 3049 3049 3049 3048 3047 3046 3044 3042 3042 3042 3043 3044 3044 3043 3042 3039 3035 3030 3026 3021 3015 3010 3005 3000 2994 2989 2984 2980
3009 3012 3015 3015 3018 3020 3022 3025 3029 3032 3033 3034 3036 3039 3043 3044 3044 3043 3043 3042 3040 3039 3038 3037 3037 3039 3039 3038 3038 3037 3034 3030 3026 3021 3017 3012 3007 3002 2997 2992 2986 2981 2976 2971
3009 3012 3014 3016 3019 3020 3022 3024 3026 3028 3030 3031 3033 3035 3037 3037 3036 3036 3036 3037 3034 3034 3033 3034 3034 3035 3033 3032 3030 3028 3025 3021 3017 3013 3007 3002 2997 2993 2989 2985 2979 2974 2969 2963
3007 3009 3011 3013 3017 3019 3021 3022 3023 3025 3027 3029 3030 3031 3031 3030 3029 3030 3030 3029 3029 3029 3028 3029 3029 3027 3026 3025 3022 3019 3016 3012 3008 3005 3000 2995 2991 2987 2982 2977 2973 2968 2962 2957
Wind_Speed
12 11 13 14 16 16 16 14 12 15 15 14 12 9 11 12 12 10 8 8 6 6 5 3 3 3 1 3 5 6 9 2 3 5 2 1 2 4 5 2 3 6 8 18
13 11 13 14 15 15 15 14 12 15 15 13 13 12 12 12 11 10 9 8 7 6 5 3 3 2 1 2 6 7 10 4 4 1 3 5 5 10 15 10 9 12 5 11
14 13 12 14 14 14 14 12 13 16 15 10 10 12 12 12 11 8 8 7 7 6 5 4 4 2 3 6 9 10 11 5 5 7 9 15 21 20 18 15 11 14 28 31
17 15 14 14 15 13 13 12 12 17 16 12 12 13 12 12 11 8 9 8 6 6 5 4 4 4 5 9 11 9 7 9 13 14 15 17 21 22 21 23 25 18 25 26
19 17 16 14 13 12 12 12 10 15 15 15 14 13 13 11 10 10 9 7 7 6 4 4 3 5 6 6 7 11 16 11 15 20 12 14 27 30 17 5 9 18 21 27
21 19 17 15 13 13 12 11 10 13 14 15 15 14 13 12 10 8 7 6 6 4 3 3 6 6 5 8 12 13 15 10 11 11 13 18 22 1 12 18 25 23 23 27
22 20 18 16 14 13 13 13 12 13 14 14 14 12 10 9 9 7 7 6 5 4 5 7 8 5 5 5 8 10 13 14 12 11 16 2 15 22 28 27 16 22 26 29
23 21 20 18 16 14 13 13 15 15 13 13 13 12 11 10 10 8 7 6 5 6 7 9 6 5 3 7 7 10 9 11 12 6 7 18 27 12 16 19 30 23 27 27
24 23 21 20 18 16 15 14 13 14 13 13 13 12 11 11 11 10 9 8 8 9 10 9 3 2 6 4 9 10 14 15 17 12 7 5 16 22 25 23 25 16 19 30
25 24 22 20 19 17 17 16 15 14 13 12 12 12 11 11 13 11 9 10 11 11 12 12 9 8 11 6 6 9 16 19 20 17 12 18 21 15 14 12 18 32 33 38
26 25 23 21 20 19 18 17 16 15 14 13 13 13 14 14 14 13 12 11 13 13 12 9 9 8 10 11 12 18 24 16 20 11 8 9 10 24 33 39 44 34 35 41
27 25 24 22 21 20 20 18 17 16 16 13 16 17 16 18 18 17 16 16 15 9 9 7 8 12 17 19 20 21 19 17 17 16 24 29 35 35 35 36 40 35 34 28
27 26 25 24 23 22 21 20 19 19 17 17 19 18 18 20 20 20 19 19 19 19 20 20 22 25 27 24 21 23 33 30 30 34 32 33 32 30 34 32 28 35 35 39
29 28 27 26 25 24 23 22 21 21 20 21 20 15 19 23 22 22 21 21 21 22 24 26 30 31 27 27 30 35 37 33 31 34 33 33 32 31 36 31 32 37 41 37
31 30 28 27 26 25 24 23 23 23 21 16 14 18 24 25 23 21 25 25 24 24 26 28 29 32 33 36 34 44 21 28 25 34 34 32 34 35 27 30 40 38 32 28
31 29 28 26 26 26 26 26 27 26 24 25 27 26 27 27 26 25 27 31 26 28 33 35 32 31 29 32 31 25 27 26 29 32 31 30 35 37 36 37 36 31 29 34
33 32 30 27 28 28 27 29 26 25 23 24 23 26 30 26 24 25 27 28 29 28 33 35 32 33 28 33 37 37 35 30 28 26 29 34 33 32 33 32 27 28 33 34
32 29 28 28 29 29 30 30 28 26 23 23 17 20 23 22 15 13 17 21 26 32 30 32 30 27 24 30 34 30 27 30 27 29 35 30 28 30 30 29 31 36 38 39
33 32 29 30 31 33 33 29 28 27 26 23 27 29 22 19 16 20 25 23 24 28 29 26 24 24 20 21 26 31 34 31 31 29 25 28 29 30 29 32 37 42 45 49
36 34 36 32 36 33 28 31 30 31 33 33 35 33 28 26 19 17 15 19 24 19 20 18 23 27 28 30 30 31 25 27 22 21 24 27 29 32 36 40 42 47 52 54
37 41 38 40 38 38 37 28 20 20 19 22 32 28 30 24 19 20 13 9 8 9 15 16 15 21 24 25 23 24 24 23 24 25 28 32 34 38 42 44 50 52 47 44
41 41 37 38 31 20 16 16 14 12 16 12 12 16 18 13 11 12 11 13 9 8 10 9 10 20 22 22 22 22 23 24 26 27 29 33 36 41 48 50 46 44 42 41
31 25 20 15 11 9 11 13 10 10 6 6 6 10 13 14 16 11 10 8 10 10 7 7 14 19 18 18 18 20 22 24 26 29 33 39 45 46 43 42 40 39 40 41
11 5 3 7 5 6 6 6 6 8 9 10 10 11 9 13 10 11 7 10 8 7 11 18 17 15 13 13 16 20 23 26 32 38 43 43 41 40 39 37 38 39 40 40
9 5 4 7 5 8 4 4 7 11 13 13 12 12 12 12 10 8 9 6 7 8 9 11 10 9 12 18 22 25 29 35 41 39 39 40 39 37 37 36 38 38 38 39
7 7 6 3 7 8 8 6 6 7 11 13 13 12 8 13 8 9 9 6 7 11 14 13 10 15 22 24 27 33 38 37 38 39 36 35 35 35 36 36 35 35 36 38
9 10 12 11 10 5 5 7 8 8 10 12 11 8 10 8 8 9 11 18 20 20 16 12 18 27 30 32 33 30 33 34 33 33 32 31 31 33 34 35 33 34 36 37
Wind_Direction
157 153 163 168 166 168 166 162 166 170 171 171 180 182 167 164 172 178 177 173 182 177 175 158 147 160 129 22 13 357 359 333 338 318 303 237 258 269 267 330 247 262 257 277
169 158 159 167 166 169 174 179 181 178 178 186 185 176 171 171 172 178 179 176 178 177 171 147 169 163 215 305 334 335 341 317 331 214 243 282 271 289 296 289 272 254 247 273
182 172 161 163 162 169 175 181 182 185 189 192 193 183 171 172 170 173 177 181 169 169 161 166 164 200 268 296 308 314 321 298 279 262 284 294 291 293 287 274 260 262 261 285
190 184 177 171 168 168 178 182 191 184 190 184 179 178 178 178 170 169 164 166 173 180 171 191 232 265 292 301 302 302 306 294 294 289 300 296 299 299 292 279 286 263 303 299
196 192 192 188 185 185 186 189 191 189 183 182 178 183 180 181 178 175 178 180 190 207 223 238 263 293 297 286 293 300 302 295 298 302 303 307 306 312 305 285 301 293 306 308
204 200 199 197 198 200 197 192 179 182 182 183 186 187 186 184 186 182 194 201 212 237 264 284 311 310 298 289 290 292 291 290 294 289 302 313 304 238 314 304 305 304 305 313
208 207 205 203 198 198 201 200 190 190 190 191 193 194 195 202 204 206 205 219 241 255 276 305 316 312 289 268 296 292 293 289 285 273 291 275 296 304 304 296 293 304 304 302
209 208 207 209 207 201 201 198 195 196 200 207 209 213 218 216 218 222 228 239 256 279 299 313 321 308 246 277 290 313 305 288 287 260 245 282 302 321 309 298 300 296 312 315
210 210 210 209 212 207 207 208 207 205 206 211 214 220 221 221 224 233 240 250 269 284 293 303 281 279 290 272 306 306 311 298 282 270 276 269 299 301 297 292 296 302 298 313
210 211 213 214 216 216 213 214 217 217 216 218 218 224 229 231 235 244 253 264 272 277 281 283 277 274 273 273 279 298 307 299 284 273 266 282 304 295 299 300 298 305 314 311
215 216 215 215 219 222 224 223 226 228 229 231 229 230 233 237 240 249 255 261 258 267 268 274 273 250 260 270 284 301 296 288 280 270 257 286 298 305 317 305 310 311 312 307
215 219 220 220 223 225 226 228 231 235 235 237 238 239 241 242 244 246 247 249 258 261 265 258 264 270 271 278 274 296 286 288 277 273 272 288 307 302 301 307 304 309 313 313
217 219 224 225 226 229 232 232 233 237 241 245 245 245 245 246 246 245 247 252 263 270 271 268 271 272 277 273 281 291 298 293 283 289 297 309 313 298 302 308 304 314 308 320
217 220 224 228 229 230 231 233 235 237 241 245 247 248 245 247 248 249 249 255 263 268 268 273 272 273 275 274 283 289 300 292 293 297 306 310 305 306 303 298 307 309 313 315
219 220 223 226 229 231 233 236 237 239 237 246 251 251 252 255 259 262 256 256 268 276 276 270 267 269 275 281 282 292 289 301 290 305 308 297 292 300 303 307 312 312 314 317
223 222 220 224 228 231 234 236 239 240 243 249 257 262 261 262 262 262 261 260 266 280 277 275 272 268 279 278 280 277 288 297 295 296 291 286 294 301 307 308 309 315 323 324
221 225 228 227 230 232 232 238 244 244 247 254 264 269 269 265 262 258 256 264 274 271 273 271 270 270 275 276 259 280 295 290 298 287 293 293 297 305 307 312 316 318 324 323
215 220 225 227 229 232 232 236 240 242 246 251 249 252 255 265 258 255 263 266 262 269 269 269 269 278 278 274 280 284 283 297 287 288 295 300 300 304 312 315 315 318 319 317
218 217 222 228 231 236 236 236 242 245 242 247 252 254 259 254 267 275 264 258 263 267 264 266 275 273 261 260 270 276 282 283 280 292 293 295 302 308 312 315 316 315 314 314
210 215 216 219 231 238 238 228 233 235 246 229 245 258 247 269 263 245 265 264 268 251 260 267 259 255 258 268 273 282 284 288 296 293 296 307 311 313 314 315 313 312 314 315
204 209 216 222 225 227 222 225 221 217 226 242 236 238 251 261 252 275 271 248 237 247 259 246 254 257 271 277 275 278 285 293 298 302 307 310 311 311 310 309 310 314 316 317
204 206 208 210 196 207 200 194 201 212 217 224 213 231 240 246 272 255 243 248 257 244 249 228 250 258 261 261 266 276 286 292 297 303 307 307 305 306 308 312 315 316 316 317
181 151 164 178 177 177 181 188 168 199 178 180 189 259 272 263 241 231 237 229 232 238 228 230 255 273 265 267 280 288 292 297 300 303 302 303 306 311 315 315 314 314 316 318
208 203 196 193 188 185 205 221 228 243 252 261 263 256 239 239 214 218 225 229 229 229 241 260 267 269 281 292 291 290 295 297 302 304 306 309 313 313 314 313 315 318 320 321
187 173 216 238 217 212 217 237 247 251 252 255 254 253 249 238 223 218 222 217 218 226 242 262 270 280 289 290 292 296 299 301 305 308 311 311 312 314 317 318 318 318 320 321
176 187 201 193 216 225 229 234 240 239 234 239 238 233 217 219 220 214 214 215 228 258 265 267 274 291 292 293 296 300 304 307 308 310 310 313 316 316 317 319 320 320 320 319
211 227 238 261 268 255 248 250 253 255 244 226 214 222 214 218 225 215 224 244 264 266 264 271 284 288 292 297 302 304 305 307 308 309 311 313 314 316 318 319 319 321 323 323